Preview of NWS' New Version of Forecast
This preview is not operational and should not be used for support decisions.

Regional Weather Roundup (RWR)

Issued by Philadelphia/Mt Holly (PHI)

                            
000
ASUS41 KPHI 222012
RWRPHI

REGIONAL WEATHER ROUNDUP
NATIONAL WEATHER SERVICE MOUNT HOLLY NJ
400 PM EDT FRI MAR 22 2019

NOTE:  "FAIR" INDICATES FEW OR NO CLOUDS BELOW 12,000 FEET WITH NO
SIGNIFICANT WEATHER AND/OR OBSTRUCTIONS TO VISIBILITY.

 * = STATION DOES NOT REPORT PRECIPITATION (E.G. RAIN, SNOW, ETC.) 
        OR FOG.

NJZ015>026-222100-
SOUTHERN NEW JERSEY
  
CITY           SKY/WX    TMP DP  RH WIND       PRES   REMARKS
POMONA         PTSUNNY   49  31  49 W24G38    29.48S                  
WILDWOOD*      PTSUNNY   50  35  56 W17G25    29.54S                  
MILLVILLE      PTSUNNY   51  31  46 W23G33    29.52R                  
MOUNT HOLLY    PTSUNNY   50  29  44 W15G30    29.47F                  
TRENTON        CLOUDY    49  29  46 W18G32    29.44S                  

$$
NJZ001>014-222100-
NORTHERN NEW JERSEY
  
CITY           SKY/WX    TMP DP  RH WIND       PRES   REMARKS
SUSSEX         CLOUDY    45  30  55 NW14G24   29.40R                  
ANDOVER*         N/A     46  29  51 NW13G24   29.41R                  
MORRISTOWN     CLOUDY    46  32  57 NW14G30   29.41R                  
NEWARK         PTSUNNY   49  28  44 W23G38    29.38S                  
TETERBORO      PTSUNNY   49  30  48 W21G36    29.36S                  
CALDWELL       CLOUDY    48  28  46 NW22G36   29.39S                  
SOMERVILLE     PTSUNNY   48  28  46 NW18G31   29.41S                  
ALLAIRE*       CLOUDY    48  28  46 W23G38    29.42R                  
TOMS RIVER*    CLOUDY    48  29  47 NW23G31   29.45R                  

$$
PAZ043-044-047-054-055-060>062-066>071-222100-
EASTERN PENNSYLVANIA
  
CITY           SKY/WX    TMP DP  RH WIND       PRES   REMARKS
PHILADELPHIA   PTSUNNY   50  28  42 W22G36    29.50S                  
NORTH PHILA    PTSUNNY   51  30  44 W16G28    29.48S                  
BLUE BELL*     CLOUDY    46  32  57 W16G26    29.49S                  
DOYLESTOWN     CLOUDY    47  28  47 NW14G25   29.45R                  
QUAKERTOWN*    MOSUNNY   48  30  49 W15G22    29.46                   
PERKASIE*      MOCLDY    46  30  53 W21G32    29.46F                  
POTTSTOWN      PTSUNNY   46  31  55 W12G26    29.49F                  
LANCASTER      FAIR      48  34  58 W29G37    29.52S                  
COATESVILLE      N/A     46  32  57 W20G28    29.52S                  
READING        LGT RAIN  49  33  54 W17G26    29.48F                  
ALLENTOWN      CLOUDY    49  29  46 W17G28    29.45F                  
MOUNT POCONO   PTSUNNY   36  29  75 W16G30    29.39R WCI  26          
HAZLETON       LGT RAIN  41  28  60 W9G21     29.47S                  
LEHIGHTON      MOCLDY    46  32  57 W9G17     29.46F                  
WILKES BARRE   LGT RAIN  38  34  85 N16G24    29.45R FOG     WCI  29  

$$
DEZALL-MDZ008-012-015-019-020-222100-
DELAWARE AND EASTERN MARYLAND
  
CITY           SKY/WX    TMP DP  RH WIND       PRES   REMARKS
WILMINGTON     FAIR      50  28  42 W25G33    29.53F                  
GEORGETOWN     PTSUNNY   55  32  41 W17G28    29.57R                  
EASTON         PTSUNNY   54  32  43 W14G20    29.62F                  
ABERDEEN       CLOUDY    48  36  61 W16G28    29.56S                  
PATUXENT       PTSUNNY   54  32  43 NW15      29.59F                  
OCEAN CITY     PTSUNNY   53  31  42 NW24G33   29.57S                  
WALLOPS ISLAND FAIR      57  34  41 NW20G32   29.59S                  
CAMBRIDGE      MOSUNNY   54  32  43 NW12G24   29.58F                  
SALISBURY      PTSUNNY   53  33  46 W21G36    29.58S                  

$$
PAZ001-021-NYZ056-072-MDZ011-DCZ001-222100-
OTHER NEARBY LOCATIONS
  
CITY           SKY/WX    TMP DP  RH WIND       PRES   REMARKS
HARRISBURG     PTSUNNY   47  33  58 W21G31    29.54S                  
STATE COLLEGE  PTSUNNY   39  27  60 W21G30    29.57R WCI  29          
WILLIAMSPORT   LGT RAIN  38  31  76 NW24G33   29.53R WCI  27          
BINGHAMTON     CLOUDY    37  30  75 NW14G29   29.41F WCI  28          
NEW YORK CITY  PTSUNNY   49  29  46 W12G22    29.39F                  
BALTIMORE      LGT RAIN  48  33  56 W21G26    29.58S                  
WASHINGTON DC  LGT RAIN  53  33  46 NW10      29.59F                  

$$